Location: Caracas
(10.5033°N, 66.8422°W)
Time: 17:13:46
(UTC-04:00)

N. Korean satellite - Visible Passes

Search period start: 17 November 2017 00:00
Search period end: 27 November 2017 00:00
Orbit: 460 x 515 km, 97.2° (Epoch: 17 November)

Date Brightness Start Highest point End Pass type
(mag) Time Alt. Az. Time Alt. Az. Time Alt. Az.
17 Nov 6.9 18:29:38 10° SSE 18:32:52 39° ENE 18:36:06 10° N visible
18 Nov 10.0 19:41:38 10° WSW 19:42:47 11° W 19:43:56 10° W visible
19 Nov 8.7 19:16:22 10° SSW 19:19:19 27° W 19:22:18 10° NW visible
20 Nov 6.7 18:52:27 10° S 18:55:52 74° W 18:59:19 10° NNW visible
21 Nov 6.9 18:29:12 10° SSE 18:32:27 39° ENE 18:35:42 10° N visible
22 Nov 10.0 19:41:08 10° WSW 19:42:20 11° W 19:43:33 10° WNW visible
23 Nov 8.7 19:15:53 10° SSW 19:18:52 27° W 19:21:51 10° NW visible
24 Nov 6.7 18:51:56 10° S 18:55:23 74° W 18:58:51 10° NNW visible
25 Nov 6.9 18:28:41 10° SSE 18:31:57 39° ENE 18:35:14 10° N visible
26 Nov 10.0 19:40:31 10° WSW 19:41:49 12° W 19:43:08 10° WNW visible
